Orbital Elements at Epoch 2459200.5 (2020-Dec-17.0) TDB
Reference: JPL 15 (heliocentric ecliptic J2000)
Element | Value | Uncertainty (1-sigma) | Units |
e | .143304124660784 | 3.6397e-08 | |
a | 2.315169761906118 | 1.0371e-08 | au |
q | 1.983396385735046 | 8.2157e-08 | au |
i | 8.239161178001376 | 4.0779e-06 | deg |
node | 151.1524434388355 | 3.2772e-05 | deg |
peri | 158.1814600514768 | 3.77e-05 | deg |
M | 199.4667592481893 | 1.9167e-05 | deg |
tp | 2459774.266465151306 (2022-Jul-13.76646515) | 7.0449e-05 | TDB |
period | 1286.686336656044 3.52 | 8.6454e-06 2.367e-08 | d yr |
n | .2797884688319612 | 1.8799e-09 | deg/d |
Q | 2.64694313807719 | 1.1857e-08 | au |
|
| | Orbit Determination Parameters
Additional Information
|